BAW2589 LIPX-EGKK

Flight info

Callsign BAW2589
Flight time N/A
Altitude 36000
Route OTZOM Y480 UPXUF L612 ADOSA DCT BORMI DCT RESIA DCT ELMUR DCT RIPUS DCT DITON DCT HOC DCT LUL DCT RLP DCT ROTSI DCT KOTUN DCT NINAL DCT KESAX DCT KUNAV
Aircraft A20N/M-SDE2E3FGHIRWXY/LB1

Departure

Time 2026-05-05 15:33
Airport Verona Villafranca Valerio Catullo Airport (LIPX)

Arrival

Time N/A
Airport London Gatwick Airport (EGKK)
Time Latitude Longitude Altitude Speed Heading
2026-05-05 15:12 45.39869 10.88471 245 ft 0 kts 271°
2026-05-05 15:25 45.39869 10.88493 244 ft 4 kts 270°
2026-05-05 15:26 45.39869 10.88523 244 ft 0 kts 270°
2026-05-05 15:28 45.39869 10.88518 244 ft 2 kts 270°
2026-05-05 15:29 45.39862 10.88508 244 ft 3 kts 226°
2026-05-05 15:29 45.39836 10.88474 244 ft 8 kts 216°
2026-05-05 15:29 45.39782 10.88415 243 ft 12 kts 223°
2026-05-05 15:29 45.39717 10.88324 242 ft 15 kts 224°
2026-05-05 15:30 45.39624 10.88231 238 ft 18 kts 183°
2026-05-05 15:30 45.39499 10.88301 236 ft 21 kts 161°
2026-05-05 15:30 45.39373 10.88224 239 ft 22 kts 225°
2026-05-05 15:30 45.39298 10.88118 235 ft 24 kts 224°
2026-05-05 15:31 45.39140 10.87891 236 ft 25 kts 225°
2026-05-05 15:31 45.39059 10.87771 237 ft 25 kts 226°
2026-05-05 15:31 45.38911 10.87552 234 ft 5 kts 226°
2026-05-05 15:31 45.38892 10.87523 232 ft 7 kts 226°
2026-05-05 15:32 45.38836 10.87524 234 ft 10 kts 143°
2026-05-05 15:32 45.38775 10.87605 230 ft 14 kts 134°
2026-05-05 15:32 45.38787 10.87709 231 ft 12 kts 52°
2026-05-05 15:32 45.38980 10.87994 233 ft 79 kts 45°
2026-05-05 15:33 45.39543 10.88803 240 ft 145 kts 46°
2026-05-05 15:33 45.40308 10.89967 649 ft 161 kts 48°
2026-05-05 15:33 45.40994 10.91143 1540 ft 152 kts 46°
2026-05-05 15:33 45.41974 10.92042 1852 ft 189 kts 20°
2026-05-05 15:34 45.43241 10.92750 2675 ft 199 kts 19°
2026-05-05 15:34 45.44569 10.93417 3530 ft 208 kts 17°
2026-05-05 15:34 45.45975 10.94088 4225 ft 221 kts 17°
2026-05-05 15:34 45.47516 10.94705 4864 ft 239 kts 11°
2026-05-05 15:35 45.49204 10.95220 5401 ft 261 kts 11°
2026-05-05 15:35 45.51042 10.95803 6158 ft 273 kts 12°
2026-05-05 15:35 45.53532 10.95805 7404 ft 275 kts 340°
2026-05-05 15:35 45.54689 10.95021 8017 ft 277 kts 327°
2026-05-05 15:36 45.56281 10.93449 8935 ft 281 kts 322°
2026-05-05 15:36 45.57848 10.91759 9817 ft 286 kts 322°
2026-05-05 15:36 45.59489 10.90035 10549 ft 298 kts 323°
2026-05-05 15:36 45.61246 10.88269 10856 ft 323 kts 324°
2026-05-05 15:37 45.63142 10.86430 11348 ft 337 kts 325°
2026-05-05 15:37 45.65135 10.84529 12068 ft 345 kts 326°
2026-05-05 15:37 45.67137 10.82629 12845 ft 350 kts 326°
2026-05-05 15:37 45.69195 10.80674 13547 ft 357 kts 326°
2026-05-05 15:38 45.71255 10.78714 14441 ft 356 kts 326°
2026-05-05 15:38 45.73323 10.76742 15351 ft 356 kts 326°
2026-05-05 15:38 45.75390 10.74768 16014 ft 362 kts 326°
2026-05-05 15:38 45.77492 10.72758 16637 ft 369 kts 326°
2026-05-05 15:39 45.79650 10.70693 17342 ft 372 kts 326°
2026-05-05 15:39 45.81800 10.68631 17982 ft 376 kts 326°
2026-05-05 15:39 45.84014 10.66506 18480 ft 385 kts 326°
2026-05-05 15:39 45.86229 10.64379 19209 ft 385 kts 326°
2026-05-05 15:40 45.88478 10.62218 19843 ft 390 kts 326°
2026-05-05 15:40 45.90719 10.60061 20533 ft 390 kts 326°
2026-05-05 15:40 45.92979 10.57883 20998 ft 398 kts 326°
2026-05-05 15:40 45.95323 10.55623 21464 ft 403 kts 326°
2026-05-05 15:41 45.97642 10.53383 22066 ft 404 kts 326°
2026-05-05 15:41 45.99995 10.51110 22684 ft 408 kts 325°
2026-05-05 15:41 46.02353 10.48828 22994 ft 416 kts 325°
2026-05-05 15:41 46.04755 10.46501 23434 ft 418 kts 325°
2026-05-05 15:42 46.07176 10.44154 24061 ft 418 kts 325°
2026-05-05 15:42 46.09607 10.41794 24642 ft 420 kts 325°
2026-05-05 15:42 46.12046 10.39424 24854 ft 429 kts 325°
2026-05-05 15:42 46.14498 10.37037 25493 ft 426 kts 325°
2026-05-05 15:43 46.16936 10.34663 26130 ft 425 kts 325°
2026-05-05 15:43 46.19426 10.32235 26513 ft 431 kts 325°
2026-05-05 15:43 46.21915 10.29805 26703 ft 439 kts 325°
2026-05-05 15:43 46.24478 10.27301 27001 ft 442 kts 325°
2026-05-05 15:44 46.26995 10.24839 27806 ft 435 kts 325°
2026-05-05 15:44 46.29505 10.22381 28050 ft 442 kts 325°
2026-05-05 15:44 46.32055 10.19880 28163 ft 449 kts 325°
2026-05-05 15:44 46.34651 10.17330 28577 ft 450 kts 325°
2026-05-05 15:45 46.37271 10.14755 28741 ft 455 kts 325°
2026-05-05 15:45 46.39885 10.12183 28989 ft 458 kts 325°
2026-05-05 15:45 46.42541 10.09566 29312 ft 459 kts 325°
2026-05-05 15:45 46.45179 10.06955 29452 ft 463 kts 324°
2026-05-05 15:46 46.47707 10.04040 29769 ft 463 kts 318°
2026-05-05 15:46 46.49994 10.00773 30014 ft 465 kts 311°
2026-05-05 15:46 46.52142 9.97219 30270 ft 466 kts 311°
2026-05-05 15:46 46.54273 9.93719 30478 ft 469 kts 311°
2026-05-05 15:47 46.56463 9.90132 30859 ft 468 kts 311°
2026-05-05 15:47 46.57900 9.87776 31144 ft 468 kts 311°
2026-05-05 15:47 46.60785 9.83026 31375 ft 472 kts 311°
2026-05-05 15:47 46.62949 9.79451 31649 ft 472 kts 311°
2026-05-05 15:48 46.65122 9.75854 32240 ft 467 kts 311°
2026-05-05 15:48 46.67249 9.72329 32609 ft 466 kts 311°
2026-05-05 15:48 46.69388 9.68778 32978 ft 464 kts 311°
2026-05-05 15:48 46.71496 9.65273 33345 ft 464 kts 311°
2026-05-05 15:49 46.73655 9.61679 33435 ft 468 kts 311°
2026-05-05 15:49 46.75798 9.58107 33609 ft 469 kts 311°
2026-05-05 15:49 46.77913 9.54579 34234 ft 460 kts 311°
2026-05-05 15:49 46.80002 9.51089 34662 ft 458 kts 310°
2026-05-05 15:50 46.82127 9.47533 34805 ft 460 kts 310°
2026-05-05 15:50 46.84200 9.44061 35405 ft 452 kts 310°
2026-05-05 15:50 46.86255 9.40614 35595 ft 454 kts 310°
2026-05-05 15:50 46.88351 9.37093 35700 ft 458 kts 310°
2026-05-05 15:51 46.90443 9.33575 35658 ft 463 kts 310°
2026-05-05 15:51 46.92547 9.30033 35849 ft 461 kts 310°
2026-05-05 15:51 46.94637 9.26509 35985 ft 460 kts 310°
2026-05-05 15:52 46.98819 9.19444 36003 ft 457 kts 310°
2026-05-05 15:52 47.02989 9.12382 36001 ft 459 kts 310°
2026-05-05 15:53 47.07138 9.05337 36000 ft 449 kts 310°
2026-05-05 15:53 47.11233 8.98363 36004 ft 454 kts 310°
2026-05-05 15:54 47.14971 8.90939 36001 ft 451 kts 300°
2026-05-05 15:54 47.17723 8.82702 35999 ft 449 kts 290°
2026-05-05 15:55 47.19897 8.74152 36000 ft 448 kts 290°
2026-05-05 15:55 47.22089 8.65596 35999 ft 448 kts 290°
2026-05-05 15:56 47.24278 8.56967 36000 ft 449 kts 290°
2026-05-05 15:56 47.26452 8.48344 36000 ft 449 kts 290°
2026-05-05 15:57 47.28620 8.39735 36006 ft 448 kts 290°
2026-05-05 15:57 47.30781 8.31127 36004 ft 448 kts 290°
2026-05-05 15:58 47.32912 8.22568 35995 ft 448 kts 290°
2026-05-05 15:58 47.35054 8.13930 35998 ft 447 kts 290°
2026-05-05 15:59 47.37189 8.05289 36004 ft 447 kts 290°
2026-05-05 15:59 47.39302 7.96706 35996 ft 447 kts 290°
2026-05-05 16:00 47.41424 7.88053 35994 ft 447 kts 289°
2026-05-05 16:00 47.43536 7.79405 35994 ft 447 kts 289°
2026-05-05 16:01 47.45642 7.70751 35996 ft 447 kts 289°
2026-05-05 16:01 47.47420 7.62016 35998 ft 447 kts 283°
2026-05-05 16:02 47.48912 7.53068 36004 ft 447 kts 284°
2026-05-05 16:02 47.50408 7.44145 36003 ft 447 kts 284°
2026-05-05 16:03 47.51895 7.35201 36002 ft 447 kts 283°
2026-05-05 16:03 47.53370 7.26260 36004 ft 448 kts 283°
2026-05-05 16:04 47.54835 7.17338 36004 ft 448 kts 283°
2026-05-05 16:04 47.56298 7.08375 36004 ft 448 kts 283°
2026-05-05 16:05 47.57754 6.99415 36004 ft 448 kts 283°
2026-05-05 16:05 47.59203 6.90445 36007 ft 448 kts 283°
2026-05-05 16:06 47.60645 6.81470 36007 ft 447 kts 283°
2026-05-05 16:06 47.62071 6.72543 36004 ft 447 kts 283°
2026-05-05 16:07 47.63499 6.63559 36001 ft 447 kts 283°
2026-05-05 16:07 47.64920 6.54574 36003 ft 447 kts 283°
2026-05-05 16:08 47.66324 6.45642 36006 ft 447 kts 283°
2026-05-05 16:08 47.67730 6.36652 36000 ft 447 kts 283°
2026-05-05 16:09 47.69208 6.27707 36002 ft 446 kts 287°
2026-05-05 16:09 47.71096 6.18902 36000 ft 446 kts 287°
2026-05-05 16:10 47.72957 6.10177 35996 ft 446 kts 287°
2026-05-05 16:10 47.74817 6.01383 36004 ft 446 kts 287°
2026-05-05 16:11 47.76671 5.92567 35999 ft 446 kts 287°
2026-05-05 16:12 47.80346 5.74984 35999 ft 446 kts 287°
2026-05-05 16:13 47.84908 5.52944 35997 ft 446 kts 287°
2026-05-05 16:13 47.86721 5.44120 35991 ft 446 kts 287°
2026-05-05 16:14 47.90759 5.26628 35993 ft 446 kts 298°
2026-05-05 16:15 47.94228 5.19027 35990 ft 447 kts 311°
2026-05-05 16:15 47.98432 5.12119 35996 ft 447 kts 311°
2026-05-05 16:16 48.06754 4.98341 36000 ft 448 kts 311°
2026-05-05 16:17 48.13000 4.87965 36007 ft 448 kts 311°
2026-05-05 16:18 48.19233 4.77571 36013 ft 448 kts 311°
2026-05-05 16:19 48.25471 4.67129 36015 ft 448 kts 311°
2026-05-05 16:19 48.31700 4.56659 36014 ft 448 kts 311°
2026-05-05 16:20 48.39311 4.43809 36010 ft 447 kts 311°
2026-05-05 16:22 48.49617 4.26310 36001 ft 446 kts 311°
2026-05-05 16:23 48.57803 4.12326 35996 ft 445 kts 311°
2026-05-05 16:23 48.63941 4.01792 35998 ft 445 kts 311°
2026-05-05 16:24 48.68047 3.94721 35999 ft 445 kts 311°
2026-05-05 16:25 48.74291 3.84368 35992 ft 445 kts 315°
2026-05-05 16:25 48.80904 3.74558 35989 ft 445 kts 315°
2026-05-05 16:26 48.89759 3.61331 35993 ft 446 kts 315°
2026-05-05 16:27 48.94175 3.54708 35997 ft 446 kts 315°
2026-05-05 16:27 48.98562 3.48112 36000 ft 446 kts 315°
2026-05-05 16:28 49.02996 3.41428 36003 ft 447 kts 315°
2026-05-05 16:28 49.07398 3.34776 36003 ft 447 kts 315°
2026-05-05 16:29 49.11813 3.28085 36005 ft 447 kts 315°
2026-05-05 16:29 49.16231 3.21372 36006 ft 447 kts 315°
2026-05-05 16:30 49.20622 3.14682 36010 ft 447 kts 315°
2026-05-05 16:30 49.25031 3.07946 36011 ft 447 kts 314°
2026-05-05 16:31 49.29434 3.01202 36007 ft 447 kts 314°
2026-05-05 16:31 49.33817 2.94471 36007 ft 447 kts 314°
2026-05-05 16:32 49.38216 2.87697 36009 ft 447 kts 314°
2026-05-05 16:32 49.42579 2.80960 36008 ft 447 kts 314°
2026-05-05 16:33 49.46969 2.74164 36008 ft 446 kts 314°
2026-05-05 16:33 49.51342 2.67375 36004 ft 446 kts 314°
2026-05-05 16:34 49.55684 2.60616 35998 ft 446 kts 314°
2026-05-05 16:34 49.60043 2.53802 36000 ft 446 kts 313°
2026-05-05 16:35 49.64065 2.46587 35995 ft 445 kts 310°
2026-05-05 16:35 49.68086 2.39317 35991 ft 445 kts 310°
2026-05-05 16:36 49.72097 2.32032 35996 ft 445 kts 310°
2026-05-05 16:36 49.76100 2.24723 35992 ft 445 kts 310°
2026-05-05 16:37 49.80095 2.17403 35997 ft 445 kts 310°
2026-05-05 16:37 49.84085 2.10072 35998 ft 445 kts 310°
2026-05-05 16:38 49.88057 2.02755 35999 ft 446 kts 309°
2026-05-05 16:38 49.92055 1.95370 35997 ft 446 kts 309°
2026-05-05 16:39 49.96023 1.88018 36001 ft 446 kts 309°
2026-05-05 16:39 50.00011 1.80608 36001 ft 446 kts 309°
2026-05-05 16:40 50.03998 1.73181 36006 ft 446 kts 309°
2026-05-05 16:40 50.08111 1.66020 36004 ft 446 kts 317°
2026-05-05 16:41 50.12816 1.59664 36003 ft 446 kts 319°
2026-05-05 16:41 50.17487 1.53311 35821 ft 442 kts 318°
2026-05-05 16:42 50.19806 1.50150 35312 ft 441 kts 318°
2026-05-05 16:42 50.22113 1.47002 34633 ft 442 kts 318°
2026-05-05 16:42 50.24440 1.43823 33887 ft 444 kts 318°
2026-05-05 16:42 50.26749 1.40667 33117 ft 445 kts 318°
2026-05-05 16:43 50.29097 1.37453 32330 ft 447 kts 318°
2026-05-05 16:43 50.31421 1.34262 31535 ft 448 kts 318°
2026-05-05 16:43 50.33789 1.31014 30708 ft 450 kts 318°
2026-05-05 16:43 50.36127 1.27804 29977 ft 449 kts 318°
2026-05-05 16:44 50.38450 1.24610 29377 ft 445 kts 318°
2026-05-05 16:44 50.40787 1.21391 28773 ft 440 kts 318°
2026-05-05 16:44 50.43062 1.18251 28182 ft 436 kts 318°
2026-05-05 16:44 50.45312 1.15142 27591 ft 432 kts 318°
2026-05-05 16:45 50.47572 1.12015 26993 ft 428 kts 318°
2026-05-05 16:45 50.49783 1.08953 26398 ft 424 kts 318°
2026-05-05 16:45 50.51947 1.05814 25815 ft 420 kts 314°
2026-05-05 16:45 50.53933 1.02454 25230 ft 416 kts 312°
2026-05-05 16:46 50.55883 0.99165 24654 ft 412 kts 313°
2026-05-05 16:46 50.57828 0.95895 24086 ft 409 kts 313°
2026-05-05 16:46 50.59779 0.92612 23498 ft 405 kts 313°
2026-05-05 16:46 50.61680 0.89404 22927 ft 402 kts 313°
2026-05-05 16:47 50.63570 0.86208 22357 ft 398 kts 313°
2026-05-05 16:47 50.65462 0.83003 21782 ft 395 kts 312°
2026-05-05 16:47 50.67304 0.79866 21218 ft 391 kts 311°
2026-05-05 16:47 50.69030 0.76538 20639 ft 388 kts 308°
2026-05-05 16:48 50.70704 0.73252 20086 ft 384 kts 308°
2026-05-05 16:48 50.72367 0.69999 19528 ft 381 kts 308°
2026-05-05 16:48 50.74034 0.66737 18966 ft 378 kts 308°
2026-05-05 16:48 50.75658 0.63554 18663 ft 368 kts 308°
2026-05-05 16:49 50.77235 0.60459 18523 ft 354 kts 308°
2026-05-05 16:49 50.78737 0.57505 18566 ft 343 kts 308°
2026-05-05 16:49 50.80223 0.54577 18335 ft 335 kts 308°
2026-05-05 16:49 50.81663 0.51735 17949 ft 331 kts 308°
2026-05-05 16:50 50.83110 0.48874 17501 ft 329 kts 308°
2026-05-05 16:50 50.84525 0.46073 17090 ft 326 kts 308°
2026-05-05 16:50 50.85929 0.43295 16702 ft 324 kts 308°
2026-05-05 16:50 50.87343 0.40498 16309 ft 322 kts 308°
2026-05-05 16:51 50.88634 0.37938 16071 ft 315 kts 308°
2026-05-05 16:51 50.89987 0.35256 15973 ft 303 kts 308°
2026-05-05 16:51 50.91271 0.32709 15878 ft 291 kts 308°
2026-05-05 16:51 50.92502 0.30264 15715 ft 282 kts 308°
2026-05-05 16:52 50.93730 0.27822 15176 ft 288 kts 308°
2026-05-05 16:52 50.95008 0.25281 14568 ft 296 kts 309°
2026-05-05 16:52 50.96307 0.22746 14137 ft 298 kts 309°
2026-05-05 16:52 50.97600 0.20183 13774 ft 296 kts 308°
2026-05-05 16:53 50.98862 0.17610 13393 ft 293 kts 308°
2026-05-05 16:53 51.00099 0.15038 12998 ft 292 kts 307°
2026-05-05 16:53 51.01306 0.12500 12516 ft 290 kts 307°
2026-05-05 16:53 51.02466 0.09883 12137 ft 288 kts 296°
2026-05-05 16:54 51.02976 0.06839 11734 ft 285 kts 271°
2026-05-05 16:54 51.02842 0.03731 11350 ft 284 kts 263°
2026-05-05 16:54 51.02618 0.00631 10989 ft 282 kts 264°
2026-05-05 16:54 51.02503 -0.02494 10553 ft 283 kts 268°
2026-05-05 16:55 51.02506 -0.05613 10114 ft 285 kts 271°
2026-05-05 16:55 51.02588 -0.08762 9742 ft 282 kts 272°
2026-05-05 16:55 51.02703 -0.11833 9514 ft 275 kts 273°
2026-05-05 16:55 51.02824 -0.14868 9116 ft 273 kts 273°
2026-05-05 16:56 51.02940 -0.17843 8729 ft 272 kts 273°
2026-05-05 16:56 51.03061 -0.20845 8356 ft 270 kts 273°
2026-05-05 16:56 51.03184 -0.23827 7982 ft 269 kts 273°
2026-05-05 16:56 51.03308 -0.26761 7610 ft 268 kts 274°
2026-05-05 16:57 51.03433 -0.29710 7252 ft 266 kts 274°
2026-05-05 16:57 51.03559 -0.32639 6898 ft 265 kts 274°
2026-05-05 16:57 51.03684 -0.35556 6533 ft 264 kts 274°
2026-05-05 16:57 51.03804 -0.38464 6193 ft 262 kts 274°
2026-05-05 16:58 51.03912 -0.41318 5833 ft 261 kts 274°
2026-05-05 16:58 51.04025 -0.44201 5471 ft 260 kts 274°
2026-05-05 16:58 51.04139 -0.47040 5120 ft 258 kts 274°
2026-05-05 16:58 51.04259 -0.49884 4778 ft 257 kts 276°
2026-05-05 16:59 51.04824 -0.52519 4508 ft 248 kts 306°
2026-05-05 16:59 51.06068 -0.54250 4350 ft 235 kts 337°
2026-05-05 16:59 51.07615 -0.54657 4236 ft 220 kts
2026-05-05 16:59 51.08943 -0.53727 4137 ft 207 kts 40°
2026-05-05 17:00 51.09852 -0.52032 4020 ft 197 kts 59°
2026-05-05 17:00 51.10423 -0.50069 3832 ft 194 kts 70°
2026-05-05 17:00 51.10795 -0.48009 3619 ft 196 kts 75°
2026-05-05 17:00 51.11100 -0.45910 3373 ft 196 kts 76°
2026-05-05 17:01 51.11396 -0.43786 3133 ft 194 kts 76°